User: anonymous
Location: Caltech
(34.1382°N, 118.1253°W)
Time: 02:35:27
(UTC-07:00)
Language:

Iridium 94 - Orbit

View from above orbital plane
View from above orbital plane
View from above satellite
View from above satellite

Ground track
Ground track

The orbit data is extracted from the following two-line orbital elements,

1 27374U 02005C   14106.13663132  .00000458  00000-0  15637-3 0  4556
2 27374 086.4002 019.7900 0001580 200.4219 295.0382 14.34227566649966
Epoch (UTC): 16 April 2014 03:16:44
Eccentricity: 0.0001580
inclination: 86.4002°
perigee height: 776 km
apogee height: 779 km
right ascension of ascending node: 19.7900°
argument of perigee: 200.4219°
revolutions per day: 14.34227566
mean anomaly at epoch: 295.0382°
orbit number at epoch: 64996

The dashed part of the orbit path shows where the satellite is in the earth's shadow,  

DLR